Location: El Bakhil
(32.7726°N, 5.5387°W)
Time: 19:11:20
(UTC+00:00)

COSMOS 2455 - Pass Details

Date: 03 March 2021
Orbit: 902 x 908 km, 67.1° (Epoch: 10 April)

Event Time Altitude Azimuth Distance (km) Brightness Sun altitude
Rises 18:53:47 0° 327° (NNW) 3,537 6.4 -7.7°
Reaches altitude 10° 18:56:23 10° 321° (NW) 2,592 5.8 -8.2°
Maximum altitude 19:02:04 46° 251° (WSW) 1,206 4.1 -9.4°
Drops below altitude 10° 19:07:44 10° 179° (S) 2,576 5.2 -10.6°
Sets 19:10:19 0° 173° (S) 3,513 5.9 -11.1°
